Jump to main content.


All Dockets by Complaint Date

(12184 records in this collection) Click for full-text searchSearch these

[prev] 1 2 3 4 5 6 7 8 9 10 11 12 13 14 15 16 17 18 19 20 21 22 23 24 25 26 27 28 29 
30
 31 32 33 34 35 36 37 38 39 40 41 42 43 44 45 46 47 48 49 50 51 52 53 54 55 56 57 58 59 
60
 61 62 63 64 65 66 67 68 69 70 71 72 73 74 75 76 77 78 79 80 81 82 83 84 85 86 87 88 89 
90
 91 92 93 94 95 96 97 98 99 100 101 102 103 104 105 106 107 108 109 110 111 112 113 114 115 116 117 118 119 
120
 121 122 [next]

12/12/2011ActiveCWA 06-2012-1701 J.D. Sinclair Production, Inc.
12/12/2011ClosedRCRA-05-2012-0003 A. Finkl & Sons Company (Chicago, Illinois)
12/12/2011ActiveSDWA 06-2012-1104 SERVICE CLEARING CORPORATION
12/12/2011ClosedTSCA-03-2012-0037 Champion Realty, Inc., (TSCA) SCAFO
12/01/2011ActiveCERCLA-08-2012-0002 OPHIR MILLS AND SMELTER SITE - ATLANTIC RICHFIELD COMPANY
12/01/2011ClosedEPCRA-05-2012-0003 Ozinga Bros., Inc., Ozinga Chicago RMC Inc., Ozinga IL RCM Mokena, Ozinga Ready-Mix Concrete - SEP - (Orland Park, Illinois)
12/01/2011ActiveRCRA-03-2011-0197 Estate of Roger G. Fussell, (RCRA), (SCAFO)
12/01/2011ClosedRCRA-03-2012-0027 Andrea Simmons, Executrix, Highlander Village (SCAFO) (RCRA)
12/01/2011ActiveSDWA-08-2012-0006 WOODENSHOE PUBLIC WATER SYSTEM
11/09/2011ActiveCERCLA-07-2012-0003 Omaha Lead Superfund Site and Lawrence R Neneman, Respondent
11/09/2011ActiveCERCLA-07-2012-0004 Omaha Lead Superfund Site and Esther Miodowski, Respondent
11/09/2011ActiveCERCLA-07-2012-0005 Omaha Lead Superfund Site and Joan A Munch, Respondent
11/09/2011ActiveCERCLA-07-2012-0006 Omaha Lead Superfund Site and Raymond F Ellis, Jr, Respondent
11/09/2011ActiveCERCLA-07-2012-0007 Omaha Lead Superfund Site and Gracie M Osby, Respondent
11/09/2011ActiveCERCLA-07-2012-0008 Omaha Lead Superfund Site and Bernice Cheslak, Respondent
11/08/2011ClosedRCRA-03-2012-0034FC Penn Ave LLC (ID# 6000101) CAFO (RCRA)
11/07/2011ActiveCWA 06-2007-4808 AMRECO LLC (STRINGFELLOW HUGHES LEASE)
11/07/2011ActiveCWA 06-2007-4810 AMRECO LLC (Martin Berry Lease)
11/07/2011ActiveCWA 06-2011-4815 Hilcorp Energy Company
11/07/2011ActiveSDWA-08-2012-0003 B. H. INVESTMENT, LLC. (BUCKINGHORSE STEAK HOUSE AND LOUNGE)
11/04/2011ClosedRCRA-07-2011-0038 Speedee Mart; Rite Way Oil & Gas Co, Inc
11/30/2011ActiveCERCLA-08-2012-0001 RAILROAD CORRIDOR OPERABLE UNIT 1 ACM SMELTER AND REFINERY SITE - BNSF RAILWAY COMPANY
11/30/2011ClosedCWA-04-2011-5016 Continental Resources, Inc.
11/30/2011ActiveCWA 06-2011-1728 Petro General, Inc.
11/30/2011ClosedCWA 06-2011-1826 CENTRAL NEW MEXICO CORRECTIONAL FACILITY
11/30/2011ActiveCWA 06-2012-1747 CITY OF AZTEC
11/30/2011ActiveEPCRA-03-2012-0007 Amerimax Home Products, Inc., EPCRA, (SCAFO)
11/30/2011ClosedEPCRA-04-2012-2001(b) Water-Way Inc.
11/30/2011ClosedSDWA-04-2011-1015(b) Greenville Oil Company
11/03/2011ClosedCWA-04-2011-7005 Classic Petroleum Services, Inc.
11/29/2011ClosedTSCA-08-2012-0001 CAPITAL GROWTH CORPORATION
11/28/2011ClosedCWA-07-2011-0098 Shipley Contracting Corp
11/28/2011ClosedRCRA-07-2011-0035 My-T-Mart
11/28/2011ClosedRCRA-07-2011-0037 Omaha Wilbert Vaults, Inc
11/28/2011ClosedRCRA-07-2011-0039 Fantasy's Phillips 66
11/23/2011ActiveCWA-06-2012-4305 Harold Langley
11/23/2011ActiveCWA 06-2012-4304 Harold Langley, Grant Lease Tank Battery
11/23/2011ClosedRCRA-07-2012-0002 Eldo WRMS, Inc
11/22/2011ClosedCWA-04-2011-5020 Allied Aviation Services
11/22/2011ActiveCWA 06-2012-2702 3-D Development, LLC
11/22/2011ActiveFIFRA 06-2012-0305 PPM Services, Inc.
11/21/2011ClosedCWA-07-2011-0075 Ronald Roche
11/21/2011ClosedEPCRA-05-2012-0002 U-Line Corporation (Milwaukee, Wisconsin)
11/21/2011ClosedRCRA-05-2012-0002 Barrel Plating Services,Inc. - INSTALLMENTS - (Milwaukee, Wisconsin)
11/21/2011ActiveSDWA-08-2012-0005 GREATER SMOOT WATER AND SEWER DISTRICT, WY
11/21/2011ClosedTSCA-07-2011-0013 Paul E Bunyard
11/21/2011ActiveTSCA-07-2012-0001 Columbia Power and Light Department
11/02/2011ActiveCWA 06-2012-4501 Alta Mesa, Iberia Parish
11/02/2011ActiveFIFRA 06-2012-0300 Red River Farm Coop, Inc.
11/18/2011ClosedFIFRA-07-2011-0013 Douglas Products and Packaging, LLC
11/17/2011ClosedCAA-04-2012-1501(b) McDonald's USA, LLC
11/17/2011ClosedCAA-04-2012-1502(b) C.D. Moody Construction Company, Inc.
11/17/2011ClosedCAA-08-2012-0001 DENISON MINES (USA) CORP.
11/17/2011Awaiting Payment/SEPCWA-05-2012-0002 Terry Lake Matter - SEP- (Steben County, Indiana)
11/17/2011ClosedSDWA-04-2011-1013(b) Douglas A. Wagner
11/16/2011ActiveCWA-07-2012-0004 City of Tilden, Nebraska
11/16/2011ActiveFIFRA-03-2012-0019 Meherrin Agricultural & Chem Co Inc., FIFRA (SCAFO)
11/15/2011ActiveCWA-07-2011-0101 AG Processing, Inc
11/15/2011ActiveCWA 06-2012-1724 OSAGE ENERGY RESOURCES, LLC
11/14/2011ActiveCWA-06-2012-4307 Bullseye Operating, LLC
11/14/2011ActiveCWA 06-2011-1822 Town of Bernalillo
11/14/2011ActiveFIFRA-08-2012-0003 PIONEER H2O TECHNOLOGIES, INC.
11/14/2011ActiveRCRA-03-2008-0012 Westchester Corporation,(RCRA) SCAFO
11/14/2011ActiveSDWA-08-2012-0004 WOODLAND MUTUAL WATER COMPANY PUBLIC WATER SYSTEM
11/10/2011ClosedCAA-04-2012-1500(b) Venture Construction Company
11/10/2011ClosedCERCLA-04-2012-2008(b) Pennekam, LLC
11/10/2011ClosedCERCLA-04-2012-2009(b) Eastman Chemical Company, Inc.
11/10/2011ClosedCWA-04-2011-7003 GAF/ELK Materials
11/10/2011ClosedEPCRA-04-2012-2005(b) Airgas South, Inc.
11/10/2011ClosedEPCRA-04-2012-2006(b) Packaging Corporation of America
11/10/2011ClosedFIFRA-07-2011-0014 McLaughlin Gormley King Company
11/10/2011ClosedSDWA-04-2011-1014(b) Kenneth C. Thacker
11/01/2011ActiveCWA 06-2012-4303 Dailey B Lease Tank Battery
11/01/2011ClosedFIFRA-05-2012-0001 Dynamic Solutions Worldwide, LLC (Milwaukee, Wisconsin)
11/01/2011ClosedSDWA-08-2012-0002 YOGI LLC and SANJAY V. PATEL
11/01/2011ClosedTSCA-05-2012-0002 Elijah King (East Cleveland, Ohio)
11/01/2011ClosedTSCA-05-2012-0003 Benneth Aduba Belinda Aduba (Milwaukee, Wisconsin)
11/01/2011ClosedTSCA-05-2012-0004 Wright Weber Management, LLC (Brookfield, Wisconsin)
10/06/2011ActiveCWA-03-2011-0246 Koehler-Bright Star LLC, CWA SCAFO
10/06/2011ClosedCWA-07-2011-0115 Union Pacific Railroad Company
10/06/2011ActiveCWA-07-2011-0116 City of Cuba
10/04/2011ActiveRCRA-01-2011-0130 Roberts Chemical Company, Inc.
10/04/2011ClosedSDWA-08-2012-0001 COFFEE CREEK WATER COMPANY, CHARLIE HARTMAN, LON NEMEC, and HENRY NEMEC
10/31/2011ClosedCWA-02-2012-3401 Lafarge Building Material, Inc.
10/31/2011ClosedCWA-07-2011-0099 Ben Shinn Trucking
10/31/2011ClosedEPCRA-07-2011-0006 PM Resources, Inc
10/31/2011ActiveEPCRA 06-2012-0500 American Pools, DBA American Fiberglass Pools
10/31/2011ClosedFIFRA-07-2011-0015 Dairy Solutions, Inc
10/31/2011ClosedRUST-05-2012-0001 Old Dominion Freight Lines, Inc. (Columbus, Ohio)
10/28/2011ActiveRCRA-03-2012-0030FC Landmark Services Tourmobile Inc., RCRA (Field Citation)
10/28/2011ActiveTSCA-05-2012-0001 Cindy Draher INSTALLMENTS --- SEP --- (Akron, Ohio)
10/27/2011ClosedCAA-04-2011-1531(b) T&M International Trading, LLC
10/27/2011ActiveCWA-07-2011-0112 City of Hull, Iowa
10/27/2011ActiveCWA-07-2011-0113 Formosa Foods Company, Inc
10/27/2011ActiveCWA-07-2011-0119 City of St Clair, Missouri
10/27/2011ClosedFIFRA-04-2011-3037(b) Doub Farms, LLC
10/27/2011ActiveRCRA-07-2011-0011 Frontier El Dorado Refining, LLC; Equilon Enterprises LLC d/b/a Shell Products US
10/26/2011ClosedCAA-05-2012-0002 City of Eagan, Minnesota -Cliff Road Water Treatment Facility RMP-11-ESA-023 (Eagan, Minnesota)
10/26/2011ClosedCAA-05-2012-0003 City of Eagan - Coachman Point Water Treatment Facility - RMP-11-ESA-024 (Eagan, Minnesota)
10/25/2011ClosedCWA-04-2011-4524(b) Town of Wallace



Local Navigation




Jump to main content.